📊 Raw Sensor Data

Showing records 36201 to 36225 of 84,891 total

ID Distance (ft) Battery V Battery A Int Temp (°F) Int Humid (%) Ext Temp (°F) Solar V RSSI SNR Time Stamp
48703 15.4 3.91 0 95 43 94 5.10 -69 8 08/09/2025 11:45 AM
48702 15.4 3.91 0 93 43 91 5.10 -69 8 08/09/2025 11:30 AM
48701 15.4 3.91 0 92 42 92 5.10 -69 8 08/09/2025 11:15 AM
48700 15.4 4.10 0 90 42 92 5.10 -70 8 08/09/2025 11:00 AM
48699 15.4 3.95 0 88 43 85 5.10 -69 7 08/09/2025 10:45 AM
48698 15.4 3.91 0 86 43 86 5.10 -70 7 08/09/2025 10:30 AM
48697 15.4 3.91 0 85 43 85 5.10 -69 8 08/09/2025 10:15 AM
48696 15.4 3.91 0 84 43 86 5.10 -70 7 08/09/2025 10:00 AM
48695 15.4 3.91 0 83 43 81 5.10 -69 7 08/09/2025 09:45 AM
48694 15.4 4.02 0 82 43 86 5.10 -69 7 08/09/2025 09:30 AM
48693 15.4 4.11 0 80 43 84 5.10 -69 8 08/09/2025 09:15 AM
48692 15.4 3.91 0 79 43 84 5.10 -71 8 08/09/2025 09:00 AM
48691 15.4 3.91 0 77 43 82 5.10 -71 8 08/09/2025 08:45 AM
48690 15.4 3.91 0 75 44 80 5.10 -70 8 08/09/2025 08:30 AM
48689 15.3 3.91 0 73 43 77 5.10 -69 8 08/09/2025 08:15 AM
48688 15.3 3.91 0 72 43 79 5.10 -69 7 08/09/2025 08:00 AM
48687 15.3 4.03 38 70 42 78 4.50 -68 7 08/09/2025 07:45 AM
48686 15.3 3.93 0 68 42 76 4.50 -69 8 08/09/2025 07:30 AM
48685 15.2 3.95 8 66 43 74 4.50 -69 7 08/09/2025 07:15 AM
48684 15.2 3.92 0 63 43 66 4.50 -68 8 08/09/2025 07:00 AM
48683 15.1 3.91 0 61 44 65 4.50 -69 8 08/09/2025 06:45 AM
48682 15.1 3.79 -9 60 44 62 4.50 -70 8 08/09/2025 06:30 AM
48681 15.0 3.89 -9 60 44 62 4.10 -68 8 08/09/2025 06:15 AM
48680 15.1 3.91 -5 61 44 62 0.50 -68 8 08/09/2025 06:00 AM
48679 15.1 3.91 -5 61 44 62 0.00 -69 8 08/09/2025 05:45 AM